Location: Arran
(51.9410°N, 101.7372°W)
Time: 07:39:51
(UTC+00:00)

SWISSCUBE - Pass Details

Date: 20 May 2025
Orbit: 685 x 693 km, 98.4° (Epoch: 20 June)

Event Time Altitude Azimuth Distance (km) Brightness Sun altitude
Rises 07:31:18 0° 4° (N) 3,078 ? -17.2°
Reaches altitude 10° 07:34:13 10° 345° (NNW) 2,157 ? -17.2°
Maximum altitude 07:37:14 17° 305° (NW) 1,720 ? -17.1°
Drops below altitude 10° 07:40:14 10° 265° (W) 2,151 ? -16.9°
Enters shadow 07:41:20 - 256° (WSW) 2,467 ? -16.9°
